Погода в Тулуме

Мексика     20°11′44″N   87°27′08″W
В апреле 2022 года жителям России запретили посещать сайт meteo.paraplan.net по решению Генеральной прокуратуры. Аудитория сайта уменьшилась в 10 раз. Владельцы сайта не видят смысла в поддержке погодного сервера в таких условиях. Сайт будет закрыт в октябре.
темп.,
°C
ветер,
м/с
пор.,
м/с
влажн.,
%
обл.,
%
осадки,
мм/ч
давл.,
гПа
погр.,
м
2 октября, вс
вс201:00+23сз129394 0.4 101352
04:00+21ссз129886 0.1 101259
07:00+21ссз149674 0.1 101492
10:00+29ссз225851 0.0 1015972
13:00+33в123959 0.0 10132299
16:00+31вюв335397 0.0 1011713
19:00+24св239281 0.4 101388
22:00+22ссв269776 1.4 1015159
3 октября, пн
пн301:00+22с129797 1.6 101563
04:00+21ссз249888 0.1 1014110
07:00+21с269860 0.1 1015146
10:00+28ссв23625 0.0 1015938
13:00+32в234696 0.0 10142016
16:00+28всв36685 0.1 1012662
19:00+23св27917 1.3 1013235
22:00+22ссв289311 0.3 1015288
4 октября, вт
вт401:00+21с149328 0.3 1015112
04:00+20с13915 0.0 101479
07:00+19с14895 0.0 101593
10:00+28ссв225218 0.0 1016859
13:00+32в234232 0.0 10141884
16:00+28вюв355571 0.0 1012614
19:00+25всв386641 0.0 1013494
22:00+21св25775 0.0 1015133
5 октября, ср
ср501:00+20ссв12835 0.0 101473
04:00+19с13865 0.0 101377
07:00+19с13865 0.0 101472
10:00+27св23515 0.0 1016906
13:00+31в23385 0.0 10141990
16:00+29вюв34485 0.0 1012765
19:00+24всв38681 0.0 1014397
22:00+22св237886 0.0 1016106
6 октября, чт
чт601:00+21св1381100 0.0 1015100
04:00+19ссз1286100 0.0 101474
07:00+19с1285100 0.0 101550
10:00+27ссв135273 0.0 1017772
13:00+31в233681 0.0 10151746
16:00+29вюв344772 0.0 1013813
19:00+24в26757 0.0 1014183
22:00+23св258211 0.0 1016133